RH
44 45 43 39 36 34 32 30 30 31 29 30 32 31 31 27 21 19 19 17 15 15 14 14 13 13 13 12 14 16 15 14 14 14 15 15 14 14 14 14 14 16
48 49 48 46 43 40 37 34 35 36 34 33 34 35 36 32 26 24 24 21 18 18 16 16 15 14 14 14 13 13 13 14 14 13 14 14 14 14 13 13 12 12
52 54 53 51 49 46 43 40 39 39 39 39 38 41 42 37 31 29 28 27 26 24 22 20 19 18 17 15 15 15 14 14 14 14 14 14 14 14 12 13 12 11
54 58 58 57 54 53 54 53 48 45 45 46 46 47 48 43 38 37 34 31 30 29 27 26 24 24 23 21 20 20 18 16 16 15 15 15 14 15 14 13 13 11
58 60 61 61 60 60 63 63 60 56 53 52 51 52 52 47 40 41 40 37 34 31 31 30 28 28 27 26 27 27 25 24 22 20 19 18 16 16 15 15 15 14
65 65 63 62 64 64 65 67 66 64 60 57 54 54 55 50 41 40 41 40 39 37 34 33 32 32 30 29 30 29 30 31 29 26 27 26 23 21 19 17 17 16
69 70 67 65 65 66 66 66 66 67 67 65 62 60 59 53 45 41 40 41 42 42 41 40 38 37 35 33 34 33 33 35 31 28 31 33 29 26 25 23 21 21
70 71 69 66 65 66 67 66 66 67 69 70 69 68 66 60 54 48 43 41 42 44 44 45 45 45 42 38 38 39 37 36 34 33 37 37 32 30 31 30 26 26
73 74 72 68 65 66 67 69 68 67 68 69 71 72 70 66 63 58 50 43 42 44 45 46 47 50 50 46 44 44 41 39 38 37 38 38 35 35 38 37 32 29
74 75 77 74 69 67 69 73 73 70 69 69 69 71 70 69 67 63 58 53 49 49 49 49 48 49 51 51 50 49 48 46 44 42 40 38 36 38 40 40 37 34
78 78 80 79 75 73 74 77 77 75 74 71 70 72 69 68 68 64 61 59 57 56 54 53 52 51 52 53 54 57 56 53 52 50 47 44 41 39 38 38 38 38
82 80 80 78 76 76 76 77 78 81 80 74 73 74 70 68 70 67 63 61 60 59 57 54 51 50 51 53 56 59 62 62 60 57 54 51 47 45 43 42 41 41
74 74 76 77 75 75 75 76 79 82 82 77 74 76 74 73 73 70 67 66 63 61 60 57 54 49 45 48 51 55 59 62 60 59 61 61 55 49 45 44 43 42
62 65 72 75 74 74 75 75 75 77 81 80 78 78 78 79 77 74 72 71 69 67 65 62 61 56 48 46 48 51 57 60 58 58 62 64 61 57 54 52 50 48
51 54 57 62 65 67 68 68 67 70 75 75 76 79 79 78 79 79 77 74 73 73 71 67 67 64 57 53 51 51 55 59 59 58 59 57 52 52 56 57 56 53
46 46 46 49 51 53 54 56 57 60 64 64 66 70 73 72 74 76 77 75 74 76 75 72 71 68 64 61 59 56 56 58 57 56 56 52 43 39 41 44 46 47
44 44 44 43 44 44 44 46 49 52 56 58 58 61 65 67 67 69 73 75 74 75 75 72 72 71 69 69 69 66 63 62 59 56 55 51 43 38 36 36 37 40
45 45 45 44 45 45 45 46 47 48 50 52 54 56 59 61 61 62 66 69 71 71 70 69 68 68 71 72 71 68 66 66 64 60 56 51 44 38 36 35 34 35
50 49 48 47 46 46 46 46 46 45 45 47 49 50 51 52 55 57 57 61 65 66 65 65 63 62 65 67 64 62 62 65 66 61 55 50 45 39 36 34 34 34
55 53 50 48 47 44 42 40 39 40 41 42 44 45 46 45 46 47 47 50 54 56 58 60 59 57 58 59 58 57 56 59 60 55 49 45 41 38 35 33 33 34
50 51 50 48 43 39 35 33 32 34 36 37 38 40 42 42 42 41 41 42 43 44 47 50 50 49 50 50 51 51 50 52 51 47 45 43 39 36 34 33 33 33
40 42 44 42 37 32 31 30 30 31 32 33 33 34 35 37 38 38 38 38 39 40 41 41 40 42 43 44 45 43 43 44 43 40 40 39 36 35 35 34 35 33
35 35 36 35 33 31 30 30 30 31 32 33 33 32 32 33 33 34 35 35 39 43 42 37 36 39 41 41 42 41 39 38 37 37 36 35 34 35 35 36 37 34
35 35 34 33 32 31 30 31 31 31 31 32 33 34 33 34 35 36 35 34 38 43 40 34 34 38 39 39 39 38 37 37 36 35 35 34 35 38 39 40 39 37
38 37 37 36 35 34 33 32 33 33 33 33 35 35 34 35 38 40 38 35 36 38 35 33 36 38 38 37 36 35 35 35 34 35 35 36 39 42 42 41 41 42
41 41 41 41 41 40 39 38 37 37 36 36 37 35 35 37 40 43 42 38 37 37 36 36 38 39 38 36 35 35 35 35 36 36 35 36 38 40 41 43 47 50